RH
60 56 56 52 50 48 47 46 47 44 42 41 40 40 39 36 34 32 30 27 24 22 20 18 16 15 13 13 12 12 12 14 14 15 15 18 17 17 11 13 14 13 16 17 14 15 16
44 67 62 54 52 50 48 45 45 46 44 43 44 42 42 39 35 32 30 26 23 20 18 16 15 14 12 12 11 12 12 15 16 21 22 19 19 20 17 15 12 17 14 13 15 17 18
54 54 59 56 55 55 56 51 49 51 46 45 48 47 44 41 36 31 28 22 17 14 12 9 8 7 9 11 10 10 11 16 15 20 24 23 21 21 17 13 20 17 12 13 13 17 19
99 64 48 50 58 61 60 59 55 58 50 50 49 49 44 39 33 27 21 16 14 14 13 11 8 5 10 6 7 8 12 15 15 19 24 24 25 20 19 21 17 15 16 14 15 14 19
100 93 65 62 68 71 67 64 64 59 58 58 53 49 42 35 24 18 32 33 24 25 25 24 20 9 9 6 11 14 17 19 20 19 23 24 26 23 22 13 15 15 14 16 17 18 15
86 98 72 63 61 70 72 63 64 64 67 58 56 46 39 23 17 32 46 37 31 30 31 28 26 23 13 12 21 23 21 23 20 22 23 23 21 17 16 14 12 17 17 17 18 20 21
92 99 77 61 74 74 65 60 57 66 64 62 53 48 34 26 36 52 46 36 38 40 42 38 34 27 20 22 18 25 23 23 24 19 15 23 15 13 18 22 20 21 20 18 17 20 28
92 90 95 97 86 83 69 60 62 57 56 60 53 48 34 30 47 55 49 55 53 63 56 42 35 42 35 30 29 24 22 21 21 17 22 22 14 18 22 22 23 23 21 20 20 27 28
93 94 91 96 99 98 70 60 53 56 48 58 54 50 51 37 53 57 52 58 58 62 59 39 48 46 44 40 29 20 25 21 19 20 20 15 19 21 23 22 24 23 22 22 20 26 27
95 95 94 88 99 96 62 50 53 70 47 60 61 60 58 42 71 59 63 50 58 63 41 24 36 39 41 42 34 28 23 21 22 20 20 16 17 24 23 22 21 24 19 21 21 23 23
100 96 100 93 94 95 100 99 99 96 73 56 71 69 57 47 70 75 66 50 59 53 40 23 34 40 37 30 25 26 25 22 20 21 19 15 22 22 23 21 20 21 20 21 20 21 23
100 100 99 98 94 91 99 96 89 88 93 69 82 69 59 53 77 70 67 58 60 52 50 32 32 34 28 24 29 27 22 23 18 20 19 14 25 22 18 21 21 21 22 22 22 23 30
96 96 99 100 94 85 84 92 88 90 93 80 74 70 66 56 79 75 70 63 71 77 30 28 35 33 22 26 28 26 23 22 21 27 25 17 17 20 24 24 22 20 23 31 34 34 29
98 93 98 95 96 87 80 84 89 84 88 80 89 75 70 66 83 77 78 87 99 49 33 40 37 37 30 30 29 28 26 23 19 15 16 20 27 21 20 21 21 24 24 30 40 34 33
98 92 96 97 100 82 79 83 83 88 84 90 90 95 80 71 99 89 80 99 88 50 28 43 41 39 39 35 33 29 28 23 20 21 25 22 31 26 23 22 22 26 31 24 36 44 39
97 99 100 99 99 86 80 93 94 88 94 100 100 96 84 79 87 99 91 90 75 47 48 45 41 43 42 39 37 31 30 37 34 30 27 30 39 28 29 25 27 26 23 34 32 45 39
96 97 97 100 91 97 77 86 89 89 92 99 100 99 88 71 92 100 95 85 57 52 48 46 50 50 48 46 40 34 35 45 42 37 30 29 33 37 32 31 27 31 31 34 31 40 42
92 100 99 100 100 99 73 82 90 97 100 100 100 95 77 82 98 99 90 63 50 52 57 51 47 49 49 48 47 48 45 47 46 46 33 35 32 41 35 38 36 31 29 30 44 42 46
89 100 100 100 100 100 83 76 89 97 100 98 99 82 100 96 96 96 82 63 50 54 49 49 50 48 50 49 52 50 50 52 46 41 41 37 39 45 45 42 37 36 36 36 40 41 46
88 99 98 100 99 87 99 80 90 99 93 98 94 98 99 100 94 78 81 74 66 55 50 46 53 49 47 47 47 50 51 50 51 43 45 46 41 37 44 38 36 46 43 39 38 59 44
92 96 98 99 99 99 100 88 89 93 100 100 100 96 87 96 98 77 65 67 64 63 51 51 58 46 44 57 50 51 47 50 48 51 44 37 48 46 46 46 44 44 40 44 43 38 51
96 99 99 99 95 96 100 98 95 89 99 100 96 99 96 79 85 78 79 74 62 59 58 58 52 50 42 46 46 52 44 48 45 48 46 44 55 46 99 46 42 44 43 42 40 39 40
99 99 100 100 98 98 98 99 94 99 100 98 98 85 76 87 88 84 83 67 58 56 72 59 69 54 57 45 46 51 53 52 49 46 53 50 56 57 59 51 49 53 46 39 36 34 36
100 99 99 100 94 96 97 100 96 99 100 94 96 86 95 99 83 77 76 63 56 58 69 79 80 67 56 54 61 59 55 53 52 50 48 55 52 62 63 58 83 40 33 33 36 33 29
94 99 99 98 86 83 89 95 100 99 100 95 87 94 90 98 67 74 76 69 64 78 81 75 80 59 52 57 61 65 64 59 54 58 53 49 54 82 79 61 44 40 38 39 38 33 26
85 98 99 99 98 83 97 99 100 100 100 100 91 97 83 80 88 75 74 74 86 81 85 80 67 59 68 66 76 75 69 48 60 70 64 60 59 72 80 77 62 39 32 33 32 41 30
84 96 99 100 99 98 98 98 100 100 99 100 100 82 72 79 81 75 73 82 79 81 87 69 78 73 68 73 82 81 65 43 64 61 73 74 79 93 74 90 58 38 32 38 53 42 34
79 88 99 99 99 100 99 98 96 100 97 100 99 92 80 88 93 87 69 68 69 69 77 73 74 74 76 82 70 76 70 59 50 43 59 63 74 81 70 98 85 36 38 45 35 41 36
80 87 96 89 96 100 99 90 100 100 100 100 98 94 96 73 91 84 76 74 66 60 62 74 58 59 60 62 67 62 76 66 50 62 46 58 43 57 50 54 44 43 35 37 43 34 38
Wind_Speed
33 33 30 28 27 25 23 21 19 17 16 14 11 10 9 10 11 10 10 11 13 13 13 13 12 12 9 4 2 4 5 4 7 7 6 4 6 1 1 1 1 3 1 2 3 6 5
37 35 33 30 29 27 24 23 21 18 17 15 13 11 10 9 10 11 11 12 13 14 14 14 13 12 11 8 5 6 3 3 4 5 7 6 3 2 1 1 4 2 4 2 3 3 1
44 38 35 33 33 30 26 25 23 21 19 17 15 12 10 10 10 10 11 12 13 13 14 14 13 12 12 11 9 10 8 4 3 1 4 5 4 1 1 1 2 2 5 9 7 4 6
43 47 44 40 42 44 36 28 26 23 21 19 17 13 11 10 10 10 10 11 12 13 13 13 12 11 7 9 10 8 6 7 4 3 2 4 3 3 1 1 3 4 6 10 8 4 2
37 44 45 42 38 36 36 34 31 26 23 20 17 14 11 9 9 7 6 8 12 12 12 11 10 6 7 8 3 4 5 4 5 6 3 3 1 1 3 6 6 5 4 3 6 10 3
41 45 47 46 42 41 39 34 30 26 23 21 18 17 11 7 7 4 5 8 7 9 8 8 11 6 6 2 3 4 8 7 4 7 4 4 3 5 4 6 4 5 7 6 2 6 7
40 42 48 49 47 44 42 38 33 29 25 22 20 16 11 6 4 2 5 7 6 4 3 7 5 6 5 4 4 4 8 7 5 6 6 3 6 6 5 1 3 3 4 3 6 3 2
41 42 44 46 49 50 44 41 35 30 27 24 22 16 12 8 6 2 4 3 2 4 9 12 16 19 20 13 4 9 10 10 8 7 6 6 7 6 5 3 4 5 6 5 5 4 4
41 43 41 42 39 45 50 44 39 33 30 27 26 21 13 11 7 6 2 4 4 8 7 10 10 10 8 13 13 12 14 10 8 9 9 7 3 10 7 7 7 7 8 5 1 5 1
39 42 42 41 38 34 51 45 43 36 34 30 28 24 16 13 8 9 2 6 5 6 6 7 6 4 5 7 8 19 15 12 7 11 9 6 7 9 9 9 9 8 6 4 7 7 3
37 40 40 41 44 41 43 46 43 40 38 32 29 25 18 16 9 8 6 4 5 2 7 5 6 5 6 7 1 4 15 16 13 9 8 5 9 11 11 10 8 1 3 6 5 7 6
42 34 39 43 42 42 40 35 37 33 38 36 30 25 22 20 16 12 6 5 4 6 12 5 6 7 6 10 5 5 7 9 14 10 9 7 3 4 4 6 4 7 7 5 4 5 9
47 34 47 39 44 42 41 38 37 33 35 41 34 28 27 27 19 14 10 6 2 9 1 10 7 8 9 9 7 8 12 13 11 12 15 14 14 7 7 8 6 10 9 5 7 5 2
33 36 43 32 45 42 41 38 36 34 35 39 38 34 32 30 21 21 18 3 9 9 17 1 5 7 10 8 6 8 11 10 8 11 6 12 8 14 11 16 11 16 12 5 5 3 3
31 35 30 40 40 42 40 38 36 35 36 38 38 34 35 32 24 24 19 6 7 11 17 6 6 10 7 7 3 9 11 9 8 11 4 9 5 5 7 5 8 9 11 1 2 1 4
28 32 26 35 33 41 40 41 37 35 38 36 40 38 39 35 26 26 8 7 6 7 5 6 10 5 9 9 8 10 11 3 5 5 4 4 6 4 8 7 3 10 11 6 5 4 4
26 31 34 33 49 40 40 39 37 34 38 30 36 23 22 42 30 20 7 7 11 8 5 4 5 5 4 4 3 7 7 3 1 3 6 3 2 7 6 6 12 6 7 0 1 1 2
27 26 33 29 33 44 41 40 38 37 33 43 34 5 22 37 20 6 7 10 8 12 4 2 4 5 4 2 3 3 4 2 3 2 5 2 1 7 5 3 2 2 3 7 3 5 1
25 27 24 30 34 32 41 40 40 42 38 53 26 17 13 32 11 9 7 9 15 11 9 4 3 3 1 3 2 2 3 3 3 0 2 3 4 6 6 4 3 6 4 2 2 1 8
25 29 18 24 36 40 40 41 41 41 40 53 18 6 11 23 16 18 14 12 10 9 9 6 10 5 5 3 1 2 4 2 2 4 3 2 2 4 4 4 2 5 7 7 7 4 8
24 29 25 24 31 42 36 44 44 47 44 44 19 7 14 10 12 18 20 18 18 9 7 10 5 8 7 5 6 6 4 4 3 2 1 1 3 2 5 4 2 2 4 7 10 10 7
17 27 25 22 27 32 32 45 46 47 46 54 18 5 12 16 27 19 16 18 26 14 12 11 7 12 10 8 6 6 8 7 4 3 1 1 3 2 2 2 1 6 6 9 10 11 13
17 27 23 22 24 30 27 44 45 46 51 25 19 16 18 19 16 16 17 18 22 22 4 10 9 3 10 11 8 2 4 2 3 5 4 3 5 4 4 0 5 10 15 16 13 10 10
17 27 21 21 23 27 29 36 43 49 49 36 17 17 5 3 14 17 19 18 22 24 11 10 16 17 6 6 9 4 2 3 2 2 3 6 5 2 2 2 5 2 3 1 4 7 7
16 25 16 17 22 22 36 24 46 44 48 43 39 30 9 2 20 14 22 15 19 13 5 14 14 14 10 14 5 5 3 4 7 1 6 3 4 3 3 7 7 11 7 4 4 4 3
16 18 15 15 17 24 34 22 37 44 43 41 38 42 27 11 9 23 22 25 9 9 4 5 11 11 13 4 3 6 6 7 7 6 2 3 3 4 4 4 5 3 9 7 2 9 8
20 18 15 16 16 23 36 35 20 47 44 43 31 32 24 11 17 32 19 19 15 9 5 8 9 6 9 4 4 4 6 5 7 9 8 7 4 8 7 5 5 7 10 6 3 1 7
18 20 18 15 16 20 26 34 20 40 46 42 37 34 25 10 15 14 18 25 21 21 9 13 7 5 6 8 7 5 6 7 7 7 7 10 9 6 7 5 8 13 12 7 1 4 4
18 21 18 19 17 16 20 23 18 37 41 42 37 34 21 17 12 18 19 20 20 20 19 26 10 19 12 8 5 5 3 5 11 9 7 8 8 5 9 6 5 19 9 13 5 6 8
Wind_Direction
236 230 229 228 226 227 228 228 230 236 240 242 249 259 268 281 291 298 301 306 309 314 317 318 322 326 339 313 255 259 318 343 7 4 16 35 44 75 260 263 248 248 160 267 333 307 294
232 230 227 228 230 227 227 231 231 232 237 242 244 249 263 273 282 294 302 305 304 307 310 311 314 318 327 287 270 275 298 319 360 33 37 41 55 81 91 327 308 3 282 278 342 352 133
229 228 224 220 227 228 228 231 232 234 234 241 242 249 253 269 278 284 295 302 303 302 303 305 307 310 302 277 275 277 278 261 321 45 65 70 80 32 262 225 340 276 228 151 48 103 112
233 228 227 231 234 232 234 228 235 235 234 237 243 241 251 265 275 289 297 296 293 295 297 302 307 309 273 271 268 273 264 271 251 203 108 82 70 118 269 190 207 220 230 190 58 17 100
235 230 227 223 225 225 228 222 224 228 236 237 241 243 243 262 276 292 302 291 288 289 290 289 299 302 276 282 275 233 195 161 171 193 182 136 92 171 187 215 190 195 161 194 133 30 172
239 230 229 225 228 228 226 223 222 224 232 235 234 237 236 256 279 289 301 310 296 296 285 277 264 271 249 224 199 179 167 148 150 157 166 191 190 225 191 217 251 161 160 164 117 47 84
238 236 230 228 228 229 226 224 225 224 224 231 232 236 231 263 282 268 294 328 314 284 305 261 273 261 271 290 224 196 181 165 157 189 220 191 232 226 130 70 92 146 179 156 113 72 56
236 237 230 228 228 227 223 220 223 220 219 222 223 225 228 257 254 241 358 61 35 317 302 282 270 259 251 245 286 208 184 192 200 213 168 203 230 146 138 147 197 197 195 174 110 97 263
234 234 233 231 226 227 220 222 226 220 218 216 217 220 238 245 238 219 55 59 5 353 272 272 247 248 237 225 229 220 189 193 200 200 205 252 77 166 182 176 198 206 226 166 279 148 154
236 232 230 230 228 227 213 217 222 219 217 214 220 226 236 238 227 201 160 25 357 352 272 252 216 226 192 189 232 217 203 196 197 215 199 234 157 190 210 215 220 207 202 204 183 220 247
231 229 228 227 224 222 221 217 214 219 218 217 218 224 229 217 200 178 182 49 14 337 270 114 163 178 169 195 57 174 199 207 211 185 200 137 184 200 214 217 201 71 166 205 206 237 251
235 218 225 225 222 223 226 216 216 219 219 210 216 222 225 214 196 186 160 93 41 233 242 176 154 178 180 201 198 132 168 203 225 203 228 261 159 210 190 164 187 144 160 167 212 250 246
241 242 218 224 222 219 219 219 215 215 214 209 214 220 218 212 208 205 189 112 215 238 22 203 184 187 198 178 183 190 175 184 186 203 216 217 219 191 211 203 175 198 194 215 214 206 273
237 238 218 229 216 216 216 214 213 211 210 207 210 220 217 214 205 203 194 107 209 245 225 93 186 168 194 177 195 183 183 183 223 223 211 205 187 201 191 224 208 206 207 232 254 217 126
237 231 231 220 215 212 214 212 210 208 203 212 216 216 207 202 198 189 180 212 193 236 209 206 171 187 169 169 225 188 198 198 189 209 234 197 144 144 189 175 214 172 212 342 186 87 273
246 233 229 224 227 213 213 210 209 210 205 212 207 196 210 204 208 192 197 212 212 231 216 210 196 249 173 168 191 202 187 164 176 222 256 170 145 136 132 159 127 240 150 181 218 218 232
252 233 230 231 212 212 212 211 208 207 204 209 185 189 221 206 201 182 205 196 207 214 205 211 160 139 124 135 181 181 171 123 195 160 208 199 235 143 173 220 171 158 177 123 98 310 259
246 242 235 222 212 210 210 209 205 204 203 195 178 183 203 198 199 201 183 182 173 183 198 178 125 105 103 115 130 156 164 50 360 273 193 153 191 173 150 78 323 321 176 205 206 173 215
251 232 242 228 216 209 208 208 206 203 204 174 169 186 203 193 200 186 181 161 188 168 184 184 116 58 147 118 131 125 119 63 42 131 179 165 194 164 159 175 187 220 172 177 118 168 217
249 236 238 224 216 215 211 209 205 203 207 179 168 155 181 203 205 168 165 178 160 182 165 143 120 136 151 175 157 129 149 101 47 100 68 267 147 257 222 78 110 184 190 201 221 214 249
248 229 239 226 213 214 213 209 206 204 198 180 190 176 183 190 186 174 171 168 180 167 190 175 149 169 168 180 205 214 184 158 145 125 107 334 176 96 69 67 19 308 226 206 226 251 239
252 224 239 234 217 215 216 207 206 201 189 195 169 173 173 179 177 163 178 185 183 171 167 180 189 170 176 197 201 192 223 217 220 161 108 44 149 133 7 116 291 265 236 240 243 253 256
252 222 237 229 228 216 221 207 205 203 197 195 194 169 176 172 164 169 188 178 189 171 170 189 123 182 190 215 213 313 102 102 153 193 146 151 151 164 242 254 303 268 237 240 240 242 265
255 221 223 229 230 225 219 206 211 207 208 193 183 177 156 163 174 185 163 177 186 184 160 149 158 216 193 166 156 131 120 138 166 146 163 161 172 148 238 183 247 330 125 77 262 266 257
261 221 221 236 241 236 219 225 212 212 210 213 218 209 181 181 177 172 170 167 168 138 110 170 173 210 186 153 154 161 171 187 198 250 204 209 156 136 201 222 306 245 212 211 218 277 255
244 238 210 222 226 224 218 229 221 211 207 197 200 195 192 163 194 167 160 154 136 156 117 135 176 170 159 147 164 189 188 184 179 160 151 156 240 171 171 226 237 118 163 162 223 278 148
227 242 222 224 221 222 227 236 226 212 205 210 200 195 196 140 154 168 171 170 137 126 124 150 134 148 199 196 165 183 210 193 172 187 172 176 179 194 203 228 256 232 172 176 230 31 167
226 228 225 226 214 222 221 235 225 205 207 205 196 190 177 128 157 158 171 170 150 160 156 156 138 193 176 202 200 181 212 194 206 196 182 178 180 187 207 210 248 179 156 221 243 189 207
226 212 225 222 225 229 218 232 226 211 204 201 194 189 195 140 157 161 163 164 172 166 168 165 183 176 178 182 203 186 167 188 202 219 206 224 215 195 198 208 120 181 207 213 236 240 237